Location: *
(49.7115°N, 15.0136°E)
Time: 15:47:49
(UTC+00:00)

STARLINK-1056 - Pass Details

Date: 27 February 2020
Orbit: 549 x 550 km, 53.0° (Epoch: 08 April)

Event Time Altitude Azimuth Distance (km) Brightness Sun altitude
Rises 19:03:07 0° 254° (WSW) 2,714 8.1 -24.0°
Reaches altitude 10° 19:05:21 10° 256° (WSW) 1,822 7.0 -24.4°
Enters shadow 19:09:02 65° 291° (WNW) 608 3.9 -24.9°
